TimeEDT,TemperatureF,Dew PointF,Humidity,Sea Level PressureIn,VisibilityMPH,Wind Direction,Wind SpeedMPH,Gust SpeedMPH,PrecipitationIn,Events,Conditions,WindDirDegrees,DateUTC
12:58 AM,37.0,16.0,42,29.96,10.0,NNW,13.8,-,N/A,,Clear,340,2013-03-22 04:58:00
1:58 AM,35.1,14.0,42,29.97,10.0,North,10.4,-,N/A,,Clear,360,2013-03-22 05:58:00
2:58 AM,35.1,14.0,42,29.99,10.0,North,11.5,-,N/A,,Clear,350,2013-03-22 06:58:00
3:58 AM,34.0,15.1,46,30.00,10.0,NNW,13.8,-,N/A,,Clear,340,2013-03-22 07:58:00
4:58 AM,33.1,16.0,50,30.00,10.0,North,8.1,-,N/A,,Clear,350,2013-03-22 08:58:00
5:58 AM,32.0,16.0,52,30.01,10.0,North,6.9,-,N/A,,Clear,350,2013-03-22 09:58:00
6:58 AM,32.0,17.1,54,30.04,10.0,North,8.1,-,N/A,,Clear,350,2013-03-22 10:58:00
7:58 AM,34.0,18.0,52,30.07,10.0,NNW,8.1,-,N/A,,Clear,340,2013-03-22 11:58:00
8:58 AM,36.0,18.0,48,30.08,10.0,NNW,8.1,-,N/A,,Clear,330,2013-03-22 12:58:00
9:58 AM,37.9,17.1,43,30.09,10.0,NW,6.9,-,N/A,,Clear,310,2013-03-22 13:58:00
10:58 AM,39.9,14.0,35,30.08,10.0,WNW,8.1,-,N/A,,Clear,300,2013-03-22 14:58:00
11:58 AM,43.0,14.0,31,30.07,10.0,SW,6.9,-,N/A,,Clear,230,2013-03-22 15:58:00
12:58 PM,44.1,19.9,38,30.06,10.0,SSW,11.5,-,N/A,,Clear,210,2013-03-22 16:58:00
1:58 PM,45.0,21.0,39,30.04,10.0,SSW,10.4,-,N/A,,Clear,200,2013-03-22 17:58:00
2:58 PM,46.0,21.9,39,30.02,10.0,SSW,9.2,-,N/A,,Clear,200,2013-03-22 18:58:00
3:58 PM,46.9,23.0,39,30.00,10.0,SW,13.8,-,N/A,,Clear,220,2013-03-22 19:58:00
4:58 PM,48.0,27.0,44,30.00,10.0,SW,15.0,-,N/A,,Clear,220,2013-03-22 20:58:00
5:58 PM,46.9,28.0,48,29.99,10.0,SW,13.8,-,N/A,,Clear,220,2013-03-22 21:58:00
6:58 PM,46.0,28.9,51,30.01,10.0,WSW,12.7,-,N/A,,Clear,240,2013-03-22 22:58:00
7:58 PM,46.9,30.9,54,30.01,10.0,WSW,9.2,-,N/A,,Clear,240,2013-03-22 23:58:00
8:58 PM,46.9,32.0,56,30.02,10.0,WSW,10.4,-,N/A,,Clear,240,2013-03-23 00:58:00
9:58 PM,48.0,33.1,56,30.03,10.0,WSW,9.2,-,N/A,,Clear,240,2013-03-23 01:58:00
10:58 PM,48.0,26.1,42,30.04,10.0,West,10.4,-,N/A,,Clear,270,2013-03-23 02:58:00
11:58 PM,46.9,25.0,42,30.05,10.0,West,9.2,-,N/A,,Clear,270,2013-03-23 03:58:00